Findlay, OH

7:04 PM EST on November 15, 2019 (GMT -0500)
Findlay

Weather History for KFDY - October, 2019

Change the Weather History Date:

Monday, October 21, 2019

  Actual Average Record
Temperature  
Mean Temperature 60 °F -  
Max Temperature 66 °F 59 °F 83 °F (1953)
Min Temperature 54 °F 41 °F 21 °F (1952)
Degree Days  
Heating Degree Days 5    
Growing Degree Days 10 (Base 50)    
Moisture  
Dew Point 54 °F    
Average Humidity 82    
Maximum Humidity 93    
Minimum Humidity 70    
Precipitation  
Precipitation 0.19 in - - ()
Sea Level Pressure  
Sea Level Pressure 29.82 in    
Wind  
Wind Speed 10 mph (SE)    
Max Wind Speed 21 mph    
Max Gust Speed 29 mph    
Visibility 8 miles    
Events Fog , Rain    
Averages and records for this station are not official NWS values.
T = Trace of Precipitation, MM = Missing Value Source: NWS Daily Summary

Daily Weather History Graph

Daily Weather History Graph

Search for Another Location

Airport or City:

Astronomy

Oct. 21, 2019 Rise Set
Actual Time 7:52 AM EDT 6:45 PM EDT
Civil Twilight 7:24 AM EDT 7:13 PM EDT
Nautical Twilight 6:52 AM EDT 7:45 PM EDT
Astronomical Twilight 6:20 AM EDT 8:17 PM EDT
Moon No Moon Rise 3:11 PM EDT (10/21)
Length of Visible Light 11h 48m
Length of Day
10h 52m
Waning Gibbous, 48% of the Moon is Illuminated
Oct 21
Waning Gibbous
Oct 27
New
Nov 4
First Quarter
Nov 12
Full
Nov 19
Last Quarter

Hourly Weather History & Observations

Time (EDT) Temp. Dew Point Humidity Pressure Visibility Wind Dir Wind Speed Gust Speed Precip Events Conditions
12:53 AM 54.0 °F 46.0 °F 75% 29.94 in 10.0 mi ESE 4.6 mph - N/A   Mostly Cloudy
1:53 AM 55.0 °F 46.9 °F 74% 29.92 in 10.0 mi East 4.6 mph - N/A   Mostly Cloudy
2:53 AM 55.9 °F 46.9 °F 72% 29.92 in 10.0 mi SSE 4.6 mph - N/A   Overcast
3:53 AM 55.0 °F 46.0 °F 72% 29.89 in 10.0 mi ESE 9.2 mph - N/A   Clear
4:53 AM 54.0 °F 46.0 °F 75% 29.88 in 10.0 mi East 6.9 mph - N/A   Partly Cloudy
5:53 AM 54.0 °F 46.0 °F 75% 29.90 in 10.0 mi SE 8.1 mph - N/A   Mostly Cloudy
6:53 AM 54.0 °F 48.0 °F 80% 29.90 in 10.0 mi SE 8.1 mph - N/A   Overcast
7:53 AM 54.0 °F 51.1 °F 90% 29.87 in 6.0 mi SE 10.4 mph - N/A   Clear
8:04 AM 54.0 °F 52.0 °F 93% 29.88 in 4.0 mi SE 11.5 mph - N/A   Scattered Clouds
8:07 AM 54.0 °F 52.0 °F 93% 29.88 in 2.0 mi SE 13.8 mph - N/A   Mostly Cloudy
8:11 AM 54.0 °F 52.0 °F 93% 29.89 in 0.8 mi SE 12.7 mph - N/A   Mostly Cloudy
8:18 AM 54.0 °F 52.0 °F 93% 29.88 in 0.2 mi SE 11.5 mph - N/A Fog Fog
8:53 AM 55.0 °F 53.1 °F 93% 29.86 in 0.2 mi ESE 9.2 mph - N/A Fog Fog
9:03 AM 55.9 °F 54.0 °F 93% 29.87 in 0.8 mi SE 10.4 mph - N/A   Overcast
9:31 AM 57.9 °F 55.9 °F 93% 29.90 in 2.0 mi SSE 12.7 mph - N/A   Overcast
9:40 AM 57.9 °F 55.9 °F 93% 29.89 in 6.0 mi SSE 12.7 mph - N/A   Overcast
9:53 AM 59.0 °F 57.0 °F 93% 29.86 in 9.0 mi SSE 15.0 mph - N/A   Overcast
10:04 AM 60.1 °F 57.0 °F 90% 29.87 in 10.0 mi SSE 18.4 mph 24.2 mph N/A   Overcast
10:53 AM 62.1 °F 55.9 °F 80% 29.83 in 10.0 mi SSE 20.7 mph 27.6 mph N/A   Overcast
11:53 AM 63.0 °F 55.0 °F 75% 29.79 in 10.0 mi SE 16.1 mph 28.8 mph N/A   Mostly Cloudy
12:07 PM 64.0 °F 55.0 °F 73% 29.82 in 10.0 mi SSE 15.0 mph 25.3 mph N/A   Partly Cloudy
12:53 PM 64.9 °F 55.0 °F 70% 29.79 in 10.0 mi SSE 16.1 mph 23.0 mph N/A   Mostly Cloudy
1:53 PM 62.1 °F 57.0 °F 84% 29.79 in 9.0 mi South 8.1 mph - 0.03 in Rain Light Rain
2:53 PM 62.1 °F 57.0 °F 84% 29.70 in 10.0 mi SE 16.1 mph 21.9 mph 0.09 in   Mostly Cloudy
3:53 PM 64.0 °F 57.0 °F 78% 29.68 in 10.0 mi SE 13.8 mph - N/A   Overcast
4:53 PM 64.9 °F 57.0 °F 75% 29.67 in 10.0 mi SE 11.5 mph - 0.01 in   Overcast
5:53 PM 66.9 °F 57.9 °F 73% 29.67 in 10.0 mi SSE 16.1 mph - 0.01 in Rain Light Rain
6:53 PM 66.9 °F 59.0 °F 76% 29.66 in 10.0 mi South 13.8 mph - 0.00 in Rain Light Rain
7:53 PM 66.9 °F 57.9 °F 73% 29.65 in 10.0 mi South 18.4 mph 25.3 mph 0.01 in Rain Light Rain
8:53 PM 64.0 °F 60.1 °F 87% 29.67 in 9.0 mi South 12.7 mph - 0.03 in Rain Light Rain
9:53 PM 64.0 °F 57.9 °F 80% 29.67 in 10.0 mi South 18.4 mph 27.6 mph 0.01 in   Mostly Cloudy